Regional Weather Roundup
Issued by NWS

Home | Current Version | Previous Version | Text Only | Print | Product List | Glossary Off
Versions: 1 2 3 4 5 6 7 8 9 10 11 12 13 14 15 16 17 18 19 20 21 22 23 24 25 26 27 28 29 30 31 32 33 34 35 36 37 38 39 40 41 42 43 44 45 46 47 48 49 50

367
ASUS43 KDTX 302210
RWRMI
MICHIGAN HOURLY REGIONAL WEATHER ROUNDUP
NATIONAL WEATHER SERVICE DETROIT/PONTIAC MI
600 PM EDT MON MAY 30 2016

NOTE: "FAIR" INDICATES FEW OR NO CLOUDS BELOW 12,000 FEET WITH NO
SIGNIFICANT WEATHER AND/OR OBSTRUCTION TO VISIBILITY.

MIZ047>049-052>055-059>063-066>070-074>076-081>083-302300-
SOUTHEAST LOWER MICHIGAN

CITY           SKY/WX    TMP DP  RH WIND       PRES   REMARKS
ADRIAN         MOSUNNY   84  50  30 NW8       29.97S
ALMA           SUNNY     79  49  34 NW14      29.96S
ANN ARBOR      MOSUNNY   83  53  35 NW6       29.96S
BAD AXE        SUNNY     79  50  36 W14       29.94F
CARO           MOSUNNY   82  52  35 NW12G17   29.93F
DETROIT CITY   SUNNY     83  50  31 NW6       29.94F
DETROIT        MOSUNNY   84  54  35 W6        29.95S
FLINT          MOSUNNY   83  53  35 NW10      29.95S
GROSSE ILE     MOSUNNY   77  63  61 S6        29.94S
HILLSDALE      MOSUNNY   82  40  22 W8        29.99S
HOWELL         SUNNY     82  50  32 W7        29.97S

CITY           SKY/WX    TMP DP  RH WIND       PRES   REMARKS
JACKSON        SUNNY     79  51  37 NW12      29.98R
LAMBERTVILLE   SUNNY     85  50  29 NW5       29.96S
LANSING        MOSUNNY   80  51  36 W9        29.97S
LAPEER         FAIR      80  49  34 NW6       29.95S
MASON          MOSUNNY   79  53  41 NW10G17   29.97S
MONROE         MOSUNNY   81  60  48 CALM      29.94S
MT. CLEMENS    MOSUNNY   78  58  50 SE6       29.94S
PONTIAC        MOSUNNY   82  51  34 W9        29.95F
PORT HOPE        N/A     77  55  46 N5        29.92F
PORT HURON     MOSUNNY   79  55  44 CALM      29.94F
TRI CITIES     SUNNY     82  50  32 W15       29.94F
MIDLAND        FAIR      82  49  32 W13G18    29.93S
TROY           SUNNY     83  50  31 W8        29.96F
SAGINAW HB     SUNNY     82  46  28 W10       29.93S
$$
MIZ043>046-050>051-056>058-064>065-071>073-077>080-302300-
SOUTHWEST LOWER MICHIGAN

CITY           SKY/WX    TMP DP  RH WIND       PRES   REMARKS
BATTLE CREEK   SUNNY     81  52  36 NW10      29.99S
BENTON HARBOR  SUNNY     81  56  42 VRB3      29.98F
BIG RAPIDS     SUNNY     77  43  29 NW7       29.97S
COLDWATER      MOSUNNY   82  50  32 W6        29.99S
FREMONT        FAIR      78  47  32 NW13G18   29.97F
HOLLAND        SUNNY     78  55  44 VRB3      30.00F
GRAND RAPIDS   MOSUNNY   82  52  35 W14       29.98F
IONIA          FAIR      81  50  34 W12       29.96F
KALAMAZOO      MOSUNNY   81  53  37 W10       29.99S
LUDINGTON      SUNNY     75  54  47 NW3       29.99S
MARSHALL       SUNNY     82  52  35 CALM      29.97F
MOUNT PLEASANT SUNNY     79  49  34 W8        29.95S
MUSKEGON       MOSUNNY   76  54  46 SW7       29.99S
SOUTH HAVEN    SUNNY     79  54  42 CALM      29.99F
$$
MIZ016>042-302300-
NORTHERN LOWER MICHIGAN

CITY           SKY/WX    TMP DP  RH WIND       PRES   REMARKS
ALPENA         SUNNY     77  46  33 W10       29.94S
BEAVER ISLAND  SUNNY     72  51  48 SW15      29.94F
BELLAIRE       SUNNY     75  47  37 W5        29.97F
CADILLAC       SUNNY     74  44  33 NW14      29.99S
CHARLEVOIX     SUNNY     73  51  45 SW12      29.99F
FRANKFORT      SUNNY     74  55  50 SW3       29.97F
GAYLORD        SUNNY     73  46  38 W9G17     29.98F
GRAYLING       SUNNY     74  46  36 W13G21    29.99S
HARBOR SPRINGS SUNNY     70  53  53 W8        29.96F
HOUGHTON LAKE  SUNNY     77  43  29 W14       29.97S
OSCODA         MOSUNNY   82  43  25 NW12G26   29.92R
PELLSTON       SUNNY     74  50  42 W9        29.95F
ROGERS CITY    MOSUNNY   75  48  39 W9        29.94F
TRAVERSE CITY  MOSUNNY   77  46  33 NW10      29.95F
$$
MIZ007>008-015-302300-
EASTERN UPPER MICHIGAN

CITY           SKY/WX    TMP DP  RH WIND       PRES   REMARKS
KINROSS          N/A     64  54  68 N14       29.94R
MACKINAC ISLAN SUNNY     67  53  62 W14G22    29.93F
NEWBERRY       SUNNY     72  47  41 W16G28    29.94S
S. S. MARIE    SUNNY     66  52  60 NW12G22   29.94R
MUNISING         N/A     69  51  52 CALM      29.94F
$$
MIZ004>006-011>014-085-302300-
CENTRAL UPPER MICHIGAN

CITY           SKY/WX    TMP DP  RH WIND       PRES   REMARKS
MANISTIQUE     PTSUNNY   64  53  65 S14G22    29.93S
ESCANABA       MOSUNNY   81  45  28 NW12G18   29.91F
MENOMINEE      MOSUNNY   79  46  31 N7        29.95S
SAWYER-GWINN   MOSUNNY   77  41  27 W15G26    29.95F
$$
MIZ001>003-009>011-084-302300-
WESTERN UPPER MICHIGAN

CITY           SKY/WX    TMP DP  RH WIND       PRES   REMARKS
IRON MOUNTAIN  SUNNY     78  42  27 W10       29.94F
HOUGHTON       SUNNY     73  47  39 W20G28    29.95R
COPPER HARBOR    N/A     61  49  64 N12       29.95R
IRONWOOD       SUNNY     75  45  33 NW8       29.94S
$$

ABBREVIATIONS USED IN REMARKS
   TC - TEMPERATURE IN CELSIUS
  WCI - WIND CHILL INDEX
   HX - HEAT INDEX
  VSB - VISIBILITY





USA.gov is the U.S. government's official web portal to all federal, state and local government web resources and services.